Location: Newark
(48.1500°N, 13.1167°E)
Time: 21:09:48
(UTC+00:00)

N. Korean satellite - Pass Details

Date: 29 September 2021
Orbit: 450 x 495 km, 97.3° (Epoch: 21 October)

Event Time Altitude Azimuth Distance (km) Brightness Sun altitude
Rises 03:12:56 0° 34° (NE) 2,543 11.1 -19.1°
Reaches altitude 10° 03:16:32 10° 73° (ENE) 1,668 10.6 -18.5°
Maximum altitude 03:17:29 11° 89° (E) 1,617 10.3 -18.4°
Drops below altitude 10° 03:18:27 10° 104° (ESE) 1,671 10.1 -18.2°
Sets 03:22:03 0° 143° (SE) 2,554 10.5 -17.6°
